Location: Newark
(50.9000°N, 14.8333°E)
Time: 18:57:05
(UTC+00:00)

N. Korean satellite - Visible Passes

Search period start: 06 December 2021 00:00
Search period end: 16 December 2021 00:00
Orbit: 446 x 495 km, 97.3° (Epoch: 06 December)

Date Brightness Start Highest point End Pass type
(mag) Time Alt. Az. Time Alt. Az. Time Alt. Az.
06 Dec 8.2 03:52:46 10° NNE 03:55:52 32° E 03:58:56 10° SSE visible
06 Dec 7.7 05:26:19 10° NNW 05:28:54 21° WNW 05:31:29 10° WSW visible
06 Dec 9.0 16:04:51 10° SSW 16:07:50 25° W 16:10:47 10° NW visible
07 Dec 9.4 03:24:57 10° NE 03:27:08 16° E 03:29:18 10° SE visible
07 Dec 6.8 04:57:19 10° N 05:00:32 40° WNW 05:03:43 10° SW visible
07 Dec 7.4 15:35:44 10° S 15:39:10 53° W 15:42:35 10° NNW visible
08 Dec 6.3 04:28:38 10° NNE 04:32:03 89° E 04:35:25 10° SSW visible
08 Dec 10.1 16:43:27 10° W 16:44:14 11° W 16:45:01 10° WNW visible
09 Dec 7.8 04:00:13 10° NNE 04:03:26 39° E 04:06:38 10° S visible
09 Dec 7.9 05:34:04 10° NNW 05:36:23 17° WNW 05:38:41 10° WSW visible
09 Dec 9.4 16:12:42 10° SW 16:15:25 21° W 16:18:07 10° NW visible
10 Dec 9.2 03:32:12 10° NE 03:35:30 18° ESE 03:37:13 10° SE visible
10 Dec 7.3 05:04:55 10° N 05:09:39 21° WSW 05:11:05 10° SW visible
10 Dec 7.9 15:43:22 10° S 15:46:42 43° W 15:50:01 10° NNW visible
11 Dec 7.9 04:36:08 10° N 04:41:35 22° SSW 04:42:54 10° SSW visible
12 Dec 8.7 04:07:36 10° NNE 04:13:16 17° S 04:14:13 10° S visible
12 Dec 8.5 05:41:47 10° NNW 05:47:21 - WSW 05:42:22 12° NW visible
12 Dec 9.6 16:20:33 10° SW 16:22:56 17° W 16:25:18 10° NW visible
13 Dec 9.5 03:44:48 11° SSE 03:44:48 11° SSE 03:44:58 10° SSE visible
13 Dec 8.5 05:12:27 10° N 05:18:55 - SW 05:13:05 14° NNW visible
13 Dec 8.3 15:50:58 10° SSW 15:54:10 35° W 15:57:20 10° NNW visible
14 Dec10.203:16:17SE03:16:17SE03:09:51NEvisible
14 Dec 8.9 04:43:34 10° N 04:50:22 - SSW 04:43:54 12° N visible
15 Dec9.304:21:47S04:21:47S04:14:45NNEvisible
15 Dec 9.7 16:28:24 10° SW 16:30:22 14° W 16:32:20 10° NW visible
